Location: Unspecified
(0.0000°N, 0.0000°E)
Time: 10:40:35
(UTC+02:00)

HO-68 - Visible Passes

Search period start: 25 April 2017 00:00
Search period end: 05 May 2017 00:00
Orbit: 1193 x 1204 km, 100.1° (Epoch: 23 April)

Date Brightness Start Highest point End Pass type
(mag) Time Alt. Az. Time Alt. Az. Time Alt. Az.
25 Apr ? 21:34:03 10° S 21:41:05 62° WSW 21:48:06 10° NNW visible
26 Apr ? 21:17:03 10° SSE 21:24:12 86° WSW 21:31:22 10° NNW visible
27 Apr ? 21:00:14 10° SSE 21:07:20 69° ENE 21:14:24 10° N visible
27 Apr ? 22:52:33 10° WSW 22:54:40 11° WSW 22:56:47 10° W visible
28 Apr ? 20:43:39 10° SSE 20:50:29 48° ENE 20:57:15 10° N visible
28 Apr ? 22:33:21 10° SW 22:37:50 18° WSW 22:42:21 10° WNW visible
29 Apr ? 20:27:19 10° SE 20:33:37 34° ENE 20:39:53 10° NNE visible
29 Apr ? 22:15:18 10° SSW 22:21:00 26° WSW 22:26:43 10° NW visible
30 Apr ? 20:11:20 10° SE 20:16:46 24° ENE 20:22:10 10° NNE visible
30 Apr ? 21:57:42 10° S 22:04:09 37° WSW 22:10:37 10° NW visible
01 May ? 21:40:23 10° S 21:47:18 53° WSW 21:54:12 10° NNW visible
02 May ? 21:23:17 10° S 21:30:26 75° WSW 21:37:33 10° NNW visible
03 May ? 21:06:24 10° SSE 21:13:34 79° ENE 21:20:42 10° N visible
04 May ? 20:49:44 10° SSE 20:56:41 56° ENE 21:03:38 10° N visible
04 May ? 22:40:17 10° SW 22:44:03 15° WSW 22:47:49 10° WNW visible
